Starlink 30287

operational
NORAD ID: 57709 Int'l Des: 2023-129 Owner: SPXS Country: US Constellation: starlink
LEOCIRCULAR

About Starlink 30287

Description loading...

Live Position

Loading 3D Globe...

Upcoming Passes

Altitude History

Altitude vs Time

uPlot chart will show altitude changes over time

Two-Line Element Set

1 57709U 23129M 25302.73738259 .00000699 00000-0 66793-4 0 9990
2 57709 43.0044 112.0389 0001463 266.2706 93.7969 15.02537192120957
Epoch: Oct 29, 2025 • Age: 35 hours

Current Status

Altitude 571.0 km
Velocity 7.58 km/s
Sub-Earth Point -42.11°S, 76.88°W
Launch Date Aug 27, 2023
Age 2.1 years
Type internet

Technical Details

Classification Payload
Mass 730.00 kg
Dry Mass 700.00 kg
Total Mass 730.00 kg
Length 0.30 m
Diameter 4.10 m
Span 29.00 m
Shape Box + pan
Manufacturer SPXS
Bus Type Starlink V2M
Phase Status In Orbit
Owner/State SPXS/US

Large Constellations

Loading constellations...